Regional Weather Roundup
Issued by NWS Burlington, VT

Home | Current Version | Previous Version | Text Only | Print | Product List | Glossary On
Versions: 1 2 3 4 5 6 7 8 9 10 11 12 13 14 15 16 17 18 19 20 21 22 23 24 25 26 27 28 29 30 31 32 33 34 35 36 37 38 39 40 41 42 43 44 45 46 47 48 49 50
000
ASUS41 KBTV 022230
RWRBTV
VERMONT REGIONAL WEATHER ROUNDUP
NATIONAL WEATHER SERVICE BURLINGTON VT
600 PM EDT MON MAY 02 2016

NOTE: "FAIR" INDICATES FEW OR NO CLOUDS BELOW 12,000 FEET WITH NO
SIGNIFICANT WEATHER AND/OR OBSTRUCTIONS TO VISIBILITY.

* THESE REPORTS ARE NOT UNDER NWS QUALITY CONTROL AND/OR DO NOT
  REPORT WEATHER SUCH AS PRECIPITATION AND FOG.

VTZ001>019-022300-
_____VERMONT_____


CITY           SKY/WX    TMP DP  RH WIND       PRES   REMARKS
BURLINGTON     CLOUDY    47  44  90 NW9       29.94R
MONTPELIER     CLOUDY    45  43  93 CALM      29.95R
MORRISVILLE    CLOUDY    46  43  89 CALM      29.94R
ST. JOHNSBURY*   N/A     47  43  86 MISG      29.91S
LYNDONVILLE*   CLOUDY    44  41  89 CALM      29.93R
MIDDLEBURY*    CLOUDY    47  47 100 N5        29.93R FOG
RUTLAND*       CLOUDY    46  43  87 NE3       29.92S
SPRINGFIELD    CLOUDY    48  43  82 NE3       29.92R
HIGHGATE*      CLOUDY    45  44  95 N3        29.95R
NEWPORT*       DRIZZLE   44  42  93 CALM      29.94R
BENNINGTON     CLOUDY    49  47  93 NW3       29.91R FOG
MT. MANSFIELD*   N/A     36 N/A N/A NW15        N/A  WCI  26

_____LAKE CHAMPLAIN_____


CITY           SKY/WX    TMP DP  RH WIND       PRES   REMARKS
COLCHESTER RF*   N/A     43  45 100 N10         N/A
DIAMOND ISL*     N/A     46  45  93 N8          N/A

$$

NYZ007-026>031-035-052-083-087-022300-
_____NORTHERN NEW YORK_____


CITY           SKY/WX    TMP DP  RH WIND       PRES   REMARKS
PLATTSBURGH    CLOUDY    47  44  90 N7        29.95S
SARANAC LAKE   CLOUDY    44  41  89 N3        29.91R
MASSENA        CLOUDY    47  42  83 N9        29.99R
OGDENSBURG*    CLOUDY    48  46  93 NE5       29.99R
WATERTOWN      CLOUDY    49  44  83 NW6       29.99R
FT DRUM        CLOUDY    46  45  93 N6        29.97R
ALBANY         CLOUDY    53  48  83 CALM      29.92S
GLENS FALLS    CLOUDY    51  46  83 CALM      29.92R

$$
NHZ002-005-011-022300-
_____NEW HAMPSHIRE_____


CITY           SKY/WX    TMP DP  RH WIND       PRES   REMARKS
LEBANON        CLOUDY    48  43  82 N3        29.92R
KEENE          CLOUDY    48  45  87 NW3       29.92R
MT WASHINGTON  FRZ DRZL  32  32 100 W7          N/A  VSB 1/16WCI  26
PLYMOUTH       CLOUDY    46  44  92 CALM      29.92R
WHITEFIELD     LGT RAIN  44  38  79 E12       29.89F

$$

_____REGIONAL QUEBEC LOCATIONS_____


CITY           SKY/WX    TMP DP  RH WIND       PRES   REMARKS
MONTREAL       DRIZZLE   46  43  87 N12       29.97R
QUEBEC CITY    LGT RAIN  43  39  87 E8        30.00F
SHERBROOKE     LGT RAIN  43  41  93 E7        29.91F

_____REGIONAL ONTARIO LOCATIONS_____


CITY           SKY/WX    TMP DP  RH WIND       PRES   REMARKS
OTTAWA         LGT RAIN  46  43  87 NE6       30.00R

______KEY______
VSB  - VISIBILITY IN MILES
WCI  - WIND CHILL INDEX
HX   - HEAT INDEX
$$
NNNN




USA.gov is the U.S. government's official web portal to all federal, state and local government web resources and services.